sat.trackr.live / text

‹ back to catalog

STARLINK-35373

NORAD 65792 · 2025-218B

PAYLOAD ACTIVE UNKNOWN

§ Identity

Operator
Country
US
Launch date
2025-09-26
Launch site
AFWTR
Launch vehicle
Mass (kg)
RCS (m²)

Purposes: comms

External: N2YO · Heavens-Above · Gunter

§ Orbital elements

Epoch: 2026-05-25T03:19:11.199648Z

Period
95.64 min
Inclination
97.4504°
Eccentricity
0.0002672
Mean motion
15.05656726 rev/d
Perigee alt
547.6 km
Apogee alt
551.3 km
Semi-major
6,927.6 km
B*
2.6577e-4
RAAN
7.9386°
Arg perigee
77.1180°
Mean anomaly
283.0346°
Rev number
3,647

§ Raw data

STARLINK-353731 65792U 25218B   26145.13832407  .00003779  00000+0  26577-3 0  99982 65792  97.4504   7.9386 0002672  77.1180 283.0346 15.05656726 36473

JSON: /api/v1/satellites/65792 · /tle

For live sub-satellite position, see the globe view (requires WebGL).

§ Visibility from observer

Set your observer location to see the next 7 days of passes ≥ 10°. The values pass through the URL so the page stays shareable.

No JS? Fill the form by hand. The geolocation button needs JavaScript.